Regional Weather Roundup
Issued by NWS Charleston, SC

Home | Current Version | Previous Version | Text Only | Print | Product List | Glossary On
Versions: 1 2 3 4 5 6 7 8 9 10 11 12 13 14 15 16 17 18 19 20 21 22 23 24 25 26 27 28 29 30 31 32 33 34 35 36 37 38 39 40 41 42 43 44 45 46 47 48 49 50
000
ASUS42 KCHS 291225
RWRCHS

REGIONAL WEATHER ROUNDUP
NATIONAL WEATHER SERVICE CHARLESTON SC
800 AM EDT FRI AUG 29 2014

NOTE: "FAIR" INDICATES FEW OR NO CLOUDS BELOW 12,000 FEET WITH NO
SIGNIFICANT WEATHER AND/OR OBSTRUCTIONS TO VISIBILITY.

NOT ALL STATIONS ARE QUALITY CONTROLLED BY THE NATIONAL
WEATHER SERVICE. USE DATA WITH CAUTION...ESPECIALLY
DEWPOINT OBSERVATIONS.

SCZ027-030-031-034>040-042>050-291300-
...SOUTH CAROLINA...

CITY           SKY/WX    TMP DP  RH WIND       PRES   REMARKS
N CHARLESTON   MOSUNNY   74  70  87 CALM      30.08R
6HR MIN TEMP:  69; 6HR MAX TEMP:  75;

WATERFRONT PRK   N/A     77 N/A N/A N6          N/A
FORT JOHNSON   NOT AVBL
MOUNT PLEASANT LGT RAIN  72  70  94 CALM      30.08S
JOHNS ISLAND   CLOUDY    79  75  89 CALM      30.09R
PINOPOLIS        N/A     81  73  78 W2        29.99S
MONCKS CORNER    N/A     72  70  94 CALM      30.08S FOG
SUMMERVILLE    FOG       64  64 100 CALM      30.10R VSB<1/4
BEAUFORT MCAS  MOSUNNY   74  71  91 NE5       30.08R
6HR MIN TEMP:  70; 6HR MAX TEMP:  74;

BEAUFORT ARPT  PTSUNNY   75  75 100 CALM      30.08R
HILTON HEAD IS SUNNY     73  73 100 CALM      30.08R
GEORGETOWN     NOT AVBL
WALTERBORO     SUNNY     70 N/A N/A CALM      30.10R
ORANGEBURG     SUNNY     68  65  90 CALM      30.09R
6HR MIN TEMP:  65; 6HR MAX TEMP:  69;

BARNWELL       FAIR      70  64  83 CALM      30.09S
AIKEN          FAIR      70  70 100 CALM      30.12R
MANNING        FAIR      70 N/A N/A CALM      30.09S
KINGSTREE      NOT AVBL
COLUMBIA       MOSUNNY   70  63  78 CALM      30.08R
6HR MIN TEMP:  68; 6HR MAX TEMP:  76;

SUMTER         PTSUNNY   73  70  89 VRB1      30.08R
6HR MIN TEMP:  69; 6HR MAX TEMP:  73;

FLORENCE       SUNNY     72  67  84 CALM      30.09R
6HR MIN TEMP:  69; 6HR MAX TEMP:  73;

MYRTLE BEACH   SUNNY     73  68  83 CALM      30.09R
N MYRTLE BEACH SUNNY     74  70  87 CALM      30.09R
6HR MIN TEMP:  69; 6HR MAX TEMP:  75;


$$

GAZ063-065-086>088-099>101-113>116-118-119-134-136>141-150-291300-
...GEORGIA...

CITY           SKY/WX    TMP DP  RH WIND       PRES   REMARKS
SAVANNAH ARPT  MOSUNNY   73  70  90 CALM      30.08R
6HR MIN TEMP:  69; 6HR MAX TEMP:  73;

HUNTER AAF     MOSUNNY   73  72  99 SE1       30.07R
6HR MIN TEMP:  69; 6HR MAX TEMP:  73;

FORT STEWART   SUNNY     69  65  90 CALM      30.07R
6HR MIN TEMP:  66; 6HR MAX TEMP:  71;

STATESBORO     NOT AVBL
SYLVANIA       SUNNY     66  66 100 CALM      30.09S FOG
CLAXTON        NOT AVBL
THOMSON        SUNNY     69  69 100 CALM      30.12S
AUGUSTA-BUSH   SUNNY     64  63  96 CALM      30.07S
6HR MIN TEMP:  60; 6HR MAX TEMP:  66;

AUGUSTA-DANIEL SUNNY     72  66  81 CALM      30.09R
SWAINSBORO     FAIR      73  73 100 CALM      30.08S
VIDALIA          N/A     73  70  88 CALM      30.07S
ALMA           SUNNY     67  66  97 CALM      30.06S FOG
6HR MIN TEMP:  63; 6HR MAX TEMP:  70;

WAYCROSS       SUNNY     72  71  96 CALM      30.07R
JESUP            N/A     72  72 100 CALM      30.08R
BRUNSWICK      SUNNY     72  70  94 CALM      30.08R
SAINT SIMONS   SUNNY     74  72  93 N3        30.06R
6HR MIN TEMP:  71; 6HR MAX TEMP:  78;


$$

SCZ027-028-034-036>038-045-046-048>050-GAZ119-141-291300-
...LAKE AND SUPPLEMENTAL COASTAL OBSERVATIONS...

STATION/POSITION TIME  TEMP    WIND        PRES    WAVE   SWELL
                       AIR SEA DIR/SP/G            HT/PER HT/PER/DIR
                 (UTC) (F)     (DEG/KT/KT) (MB)    (FT/S) (FT/S/D)
UPR LAKE MARION  NOT AVBL
WINYAH BAY       1200   72     310/  2     1018.0S
LAKE MURRAY      1200   75     260/  1/  3 1018.3S
ACE BASIN NERRS  1200   72        CALM     1018.0S
FORT PULASKI     1200   76     320/  3/  4 1018.7R
SAPELO ISLAND    1200   74        CALM     1018.0S

$$

ANZ835-935-AMZ111-154-330-350-352-354-374-450-454-472-291300-
...C-MAN AND BUOY OBSERVATIONS...

STATION/POSITION TIME  TEMP    WIND        PRES    WAVE   SWELL
                       AIR SEA DIR/SP/G            HT/PER HT/PER/DIR
                 (UTC) (F)     (DEG/KT/KT) (MB)    (FT/S) (FT/S/D)
FOLLY BEACH CMAN 1200   80     360/  4/  5 1018.8R
BUOY 41004       1200   82 83  170/  8/ 10 1017.8R   3/ 8   3/ 8
BUOY 41008       1200   81 84  280/  4/  6 1018.1R   3/ 8   3/100/ 8
5E ST. MARYS GA  1200      84                N/A     3/ 8
FRYING PAN BUOY  NOT AVBL
BUOY 41025       1200   80     280/  6/  8 1018.6R   4/10   3/150/10
CAPE LOOKOUT NC  1200   80     270/  9/ 11 1018.9R
BUOY 41002       1149   81 82   30/  4/  4 1019.9R   4/ 8   3/100/ 8
BUOY 41010       1200   82 83  180/  4/  6 1018.0R   4/ 8   3/ 90/ 8
BUOY 41012       NOT AVBL
ST AUGUSTINE FL  1200   82     100/  4/  4 1018.2R
CAPERS NEARSHORE 1100   80     140/  2/  4   N/A
FRIPP NEARSHORE  NOT AVBL


$$


USA.gov is the U.S. government's official web portal to all federal, state and local government web resources and services.